Moses Lake, WA

4:06 PM PDT on September 20, 2017 (GMT -0700)
Grant County International

Weather History for KMWH - June, 2013

Change the Weather History Date:

Thursday, June 27, 2013

  Actual Average Record
Temperature  
Mean Temperature 71 °F 68 °F  
Max Temperature 83 °F 83 °F 106 °F (2015)
Min Temperature 58 °F 54 °F 46 °F (1998)
Degree Days  
Heating Degree Days 0 1  
Month to date heating degree days 49 50  
Since 1 June heating degree days 49 50  
Since 1 July heating degree days 5330 5877  
Cooling Degree Days 6 5  
Month to date cooling degree days 70 71  
Year to date cooling degree days 120 96  
Since 1 June cooling degree days 70 71  
Growing Degree Days 20 (Base 50)    
Moisture  
Dew Point 56 °F    
Average Humidity 64    
Maximum Humidity 93    
Minimum Humidity 34    
Precipitation  
Precipitation T in 0.01 in 0.80 in (1982)
Month to date precipitation 1.57 0.71  
Year to date precipitation 3.65 4.73  
Sea Level Pressure  
Sea Level Pressure 30.13 in    
Wind  
Wind Speed 5 mph (North)    
Max Wind Speed 12 mph    
Max Gust Speed 18 mph    
Visibility 10 miles    
Events      
T = Trace of Precipitation, MM = Missing Value Source: NWS Daily Summary

Daily Weather History Graph

Daily Weather History Graph

Search for Another Location

Airport or City:

Trip Planner

Search our weather history database for the weather conditions in past years. The results will help you decide how hot, cold, wet, or windy it might be!

Date:

Astronomy

Jun. 27, 2013 Rise Set
Actual Time 5:03 AM PDT 8:57 PM PDT
Civil Twilight 4:23 AM PDT 9:37 PM PDT
Nautical Twilight 3:28 AM PDT 10:32 PM PDT
Astronomical Twilight 2:04 AM PDT 11:55 PM PDT
Moon 11:32 PM PDT (6/27) 10:31 AM PDT (6/27)
Length of Visible Light 17h 13m
Length of Day
15h 53m
Waning Gibbous, 75% of the Moon is Illuminated
Jun 27
Waning Gibbous
Jun 29
Last Quarter
Jul 8
New
Jul 15
First Quarter
Jul 22
Full

Hourly Weather History & Observations

Time (PDT) Temp. Heat Index Dew Point Humidity Pressure Visibility Wind Dir Wind Speed Gust Speed Precip Events Conditions
12:52 AM 61.0 °F - 57.9 °F 90% 30.07 in 10.0 mi SSE 5.8 mph - N/A   Clear
1:52 AM 61.0 °F - 57.0 °F 87% 30.08 in 10.0 mi Calm Calm - N/A   Clear
2:52 AM 60.1 °F - 55.9 °F 86% 30.08 in 10.0 mi ENE 4.6 mph - N/A   Clear
3:52 AM 59.0 °F - 55.0 °F 87% 30.08 in 10.0 mi Calm Calm - N/A   Mostly Cloudy
4:52 AM 57.9 °F - 55.0 °F 90% 30.09 in 10.0 mi Calm Calm - N/A   Mostly Cloudy
5:52 AM 59.0 °F - 55.0 °F 87% 30.10 in 10.0 mi North 4.6 mph - N/A   Overcast
6:52 AM 60.1 °F - 55.9 °F 86% 30.11 in 10.0 mi North 6.9 mph - N/A   Overcast
7:52 AM 61.0 °F - 57.0 °F 87% 30.12 in 10.0 mi NNE 4.6 mph - N/A   Overcast
8:52 AM 63.0 °F - 57.9 °F 84% 30.14 in 10.0 mi NNW 6.9 mph - N/A   Overcast
9:52 AM 64.0 °F - 57.9 °F 80% 30.15 in 10.0 mi North 8.1 mph - 0.00 in   Overcast
10:52 AM 66.9 °F - 59.0 °F 76% 30.16 in 10.0 mi North 5.8 mph - N/A   Scattered Clouds
11:52 AM 70.0 °F - 59.0 °F 68% 30.16 in 10.0 mi North 6.9 mph - N/A   Clear
12:52 PM 75.0 °F - 57.9 °F 55% 30.16 in 10.0 mi Variable 5.8 mph - N/A   Clear
1:52 PM 78.1 °F - 54.0 °F 43% 30.15 in 10.0 mi NNE 5.8 mph - N/A   Clear
2:52 PM 79.0 °F - 52.0 °F 39% 30.15 in 10.0 mi Calm Calm - N/A   Clear
3:52 PM 82.9 °F 81.8 °F 53.1 °F 36% 30.15 in 10.0 mi WSW 8.1 mph - N/A   Clear
4:52 PM 82.0 °F - 51.1 °F 34% 30.14 in 10.0 mi Calm Calm - N/A   Clear
5:52 PM 82.0 °F 81.2 °F 53.1 °F 37% 30.14 in 10.0 mi Variable 3.5 mph - N/A   Clear
6:52 PM 82.0 °F 81.3 °F 54.0 °F 38% 30.14 in 10.0 mi NNE 10.4 mph - N/A   Clear
7:52 PM 79.0 °F - 53.1 °F 40% 30.14 in 10.0 mi NNE 10.4 mph - N/A   Clear
8:52 PM 75.0 °F - 55.0 °F 50% 30.15 in 10.0 mi North 5.8 mph - N/A   Clear
9:52 PM 68.0 °F - 55.9 °F 65% 30.17 in 10.0 mi North 4.6 mph - N/A   Clear
10:52 PM 66.9 °F - 55.9 °F 68% 30.18 in 10.0 mi North 6.9 mph - N/A   Clear
11:52 PM 64.0 °F - 55.9 °F 75% 30.19 in 10.0 mi NNW 4.6 mph - N/A   Clear